Weather History for Imperial, NE

Change the Weather History Date:

Monday, January 21, 2013

  Actual Average Record
Temperature  
Mean Temperature 25 °F 28 °F  
Max Temperature 37 °F 41 °F 71 °F (1950)
Min Temperature 13 °F 16 °F -25 °F (1930)
Degree Days  
Heating Degree Days 40 36  
Month to date heating degree days 834 776  
Cooling Degree Days 0 0  
Month to date cooling degree days 0 0  
Year to date cooling degree days 0 0  
Moisture  
Dew Point 18 °F    
Average Humidity 74    
Maximum Humidity 100    
Minimum Humidity 48    
Precipitation  
Precipitation 0.00 in 0.01 in 0.40 in (1917)
Sea Level Pressure  
Sea Level Pressure 30.25 in    
Wind  
Wind Speed 6 mph (SE)    
Max Wind Speed 16 mph    
Max Gust Speed 20 mph    
Visibility 7 miles    
Events Fog    
T = Trace of Precipitation, MM = Missing Value Source: NWS Daily Summary

Daily Weather History Graph

Daily Weather History Graph

Search for Another Location

Airport:

Trip Planner

Search our weather history database for the weather conditions in past years. The results will help you decide how hot, cold, wet, or windy it might be!

Date:

Astronomy

Jan. 21, 2013 Rise Set
Actual Time 7:04 AM MST 4:51 PM MST
Civil Twilight 6:34 AM MST 5:21 PM MST
Nautical Twilight 6:01 AM MST 5:54 PM MST
Astronomical Twilight 5:29 AM MST 6:27 PM MST
Moon 12:32 PM MST (1/21) 2:34 AM MST (1/21)
Length of Visible Light 10h 46m
Length of Day
9h 47m
Waxing Gibbous, 75% of the Moon is Illuminated
Jan 21
Waxing Gibbous
Jan 26
Full
Feb 3
Last Quarter
Feb 10
New
Feb 17
First Quarter

Hourly Weather History & Observations

Time (MST) Temp. Windchill Dew Point Humidity Pressure Visibility Wind Dir Wind Speed Gust Speed Precip Events Conditions
12:53 AM 19.0 °F 12.3 °F 15.1 °F 85% 30.39 in 10.0 mi SW 4.6 mph - N/A   Clear
1:53 AM 19.0 °F 10.0 °F 15.1 °F 85% 30.40 in 10.0 mi SW 6.9 mph - N/A   Clear
2:53 AM 18.0 °F 9.8 °F 15.1 °F 88% 30.37 in 10.0 mi WSW 5.8 mph - N/A   Clear
3:53 AM 18.0 °F 12.7 °F 14.0 °F 84% 30.37 in 10.0 mi West 3.5 mph - N/A   Clear
4:53 AM 15.1 °F 5.2 °F 12.9 °F 91% 30.34 in 10.0 mi SW 6.9 mph - N/A   Clear
5:53 AM 14.0 °F 6.5 °F 10.9 °F 88% 30.36 in 10.0 mi North 4.6 mph - N/A   Clear
6:53 AM 12.9 °F 5.2 °F 10.0 °F 88% 30.36 in 10.0 mi North 4.6 mph - N/A   Clear
7:53 AM 17.1 °F - 12.9 °F 84% 30.32 in 10.0 mi Calm Calm - N/A   Clear
8:53 AM 21.0 °F 14.6 °F 16.0 °F 81% 30.34 in 10.0 mi NNE 4.6 mph - N/A   Clear
9:53 AM 25.0 °F 18.1 °F 18.0 °F 75% 30.35 in 10.0 mi Variable 5.8 mph - N/A   Clear
10:53 AM 28.0 °F 21.7 °F 18.0 °F 66% 30.33 in 10.0 mi NE 5.8 mph - N/A   Clear
11:53 AM 30.9 °F 27.5 °F 19.0 °F 61% 30.30 in 10.0 mi North 3.5 mph - N/A   Clear
12:53 PM 34.0 °F - 19.0 °F 54% 30.26 in 10.0 mi Calm Calm - N/A   Clear
1:53 PM 36.0 °F - 19.9 °F 52% 30.23 in 10.0 mi Calm Calm - N/A   Clear
2:53 PM 37.0 °F 31.6 °F 19.0 °F 48% 30.22 in 10.0 mi NE 6.9 mph - N/A   Clear
3:53 PM 35.1 °F 28.6 °F 21.0 °F 57% 30.22 in 10.0 mi ESE 8.1 mph - N/A   Clear
4:53 PM 28.9 °F 21.1 °F 21.0 °F 72% 30.22 in 10.0 mi ESE 8.1 mph - N/A   Clear
5:53 PM 26.1 °F 18.4 °F 19.9 °F 78% 30.25 in 10.0 mi SE 6.9 mph - N/A   Clear
6:53 PM 25.0 °F 17.1 °F 21.0 °F 85% 30.26 in 10.0 mi SE 6.9 mph - N/A   Partly Cloudy
7:53 PM 24.1 °F 14.4 °F 21.0 °F 88% 30.23 in 10.0 mi SE 9.2 mph - N/A   Partly Cloudy
8:12 PM 23.0 °F 12.4 °F 21.2 °F 93% 30.11 in 7.0 mi ESE 10.4 mph - N/A   Scattered Clouds
8:17 PM 23.0 °F 12.4 °F 21.2 °F 93% 30.11 in 6.0 mi ESE 10.4 mph - N/A   Mostly Cloudy
8:53 PM 23.0 °F 13.9 °F 21.9 °F 96% 30.24 in 3.0 mi SSE 8.1 mph - N/A   Overcast
9:06 PM 23.0 °F 11.1 °F 21.2 °F 93% 30.11 in 2.5 mi SSE 12.7 mph - N/A   Overcast
9:13 PM 23.0 °F 12.4 °F 21.2 °F 93% 30.12 in 4.0 mi SSE 10.4 mph - N/A   Overcast
9:27 PM 23.0 °F 11.1 °F 21.2 °F 93% 30.12 in 1.8 mi SSE 12.7 mph - N/A   Overcast
9:53 PM 21.9 °F 11.0 °F 21.0 °F 96% 30.23 in 1.0 mi South 10.4 mph - N/A   Mist
10:00 PM 21.2 °F 9.5 °F 21.2 °F 100% 30.11 in 0.5 mi SSE 11.5 mph - N/A Fog Light Freezing Fog
10:38 PM 21.2 °F 10.9 °F 21.2 °F 100% 30.10 in 1.2 mi SSE 9.2 mph - N/A   Overcast
10:53 PM 21.9 °F 13.4 °F 21.9 °F 100% 30.23 in 1.0 mi South 6.9 mph - N/A   Mist
11:53 PM 21.9 °F 12.5 °F 19.9 °F 92% 30.21 in 0.8 mi SSE 8.1 mph - N/A   Mist